Regional Weather Roundup
Issued by NWS

Home | Current Version | Previous Version | Text Only | Print | Product List | Glossary Off
Versions: 1 2 3 4 5 6 7 8 9 10 11 12 13 14 15 16 17 18 19 20 21 22 23 24 25 26 27 28 29 30 31 32 33 34 35 36 37 38 39 40 41 42 43 44 45 46 47 48 49 50

000
ASUS45 KTFX 010819
RWRMT
MONTANA REGIONAL WEATHER ROUNDUP
NATIONAL WEATHER SERVICE GREAT FALLS MT
200 AM MDT TUE SEP 01 2015

NOTE: "FAIR" INDICATES FEW OR NO CLOUDS BELOW 12000 FEET WITH NO
SIGNIFICANT WEATHER AND/OR OBSTRUCTIONS TO VISIBILITY.

MTZ001>007-043-010900-
WEST OF THE DIVIDE

CITY           SKY/WX    TMP DP  RH WIND       PRES   REMARKS
KALISPELL      PTSUNNY   50  42  74 SW3       29.87S
MISSOULA       CLEAR     50  42  74 CALM      29.94S
BUTTE          CLEAR     46  38  73 E5        30.02S
MULLAN PASS    PTCLDY    47  38  71 VRB7      30.00S
DEER LODGE       N/A     45  37  76 CALM      30.01F
EUREKA           N/A     61  43  51 SE7       29.85
HAMILTON         N/A     57  41  54 S8        29.94F
LIBBY            N/A     54  45  71 W5        29.85F
PLAINS           N/A     49  38  65 CALM      29.91S
RONAN            N/A     49  42  76 CALM      29.95F
THOMPSON FALLS   N/A     49  42  76 CALM      29.94F
$$

MTZ008-052>055-010900-
SOUTHWEST MONTANA

CITY           SKY/WX    TMP DP  RH WIND       PRES   REMARKS
BOZEMAN        CLEAR     50  39  66 CALM      29.94S
DILLON         CLEAR     52  35  52 SW9       29.97S
W YELLOWSTONE  CLEAR     32  27  80 S5        30.12S
THREE FORKS      N/A     55  38  52 CALM      29.93S
TWIN BRIDGES     N/A     53  31  43 E6        29.96S
$$

MTZ009-010-012-014-046-048-049-054-010900-
EAST SLOPES AND CENTRAL MONTANA

CITY           SKY/WX    TMP DP  RH WIND       PRES   REMARKS
CUT BANK       CLOUDY    56  38  50 SW16      29.80F
GREAT FALLS    MOCLDY    59  38  45 S8        29.85F
MALMSTROM AFB  MOCLDY    57  38  49 S13       29.85F
HELENA         CLEAR     57  39  51 CALM      29.92R
CONRAD           N/A     50  40  68 CALM      29.86F
$$

MTZ011-013-016-021-045-047-050-051-010900-
NORTH CENTRAL MONTANA

CITY           SKY/WX    TMP DP  RH WIND       PRES   REMARKS
HAVRE          PTCLDY    51  39  63 SW3       29.79F
LEWISTOWN      CLEAR     50  40  68 CALM      29.90F
N BAR RANCH      N/A     46  37  71 NW6       29.93F
CHINOOK          N/A     52  41  66 CALM      29.79F
FORT BENTON      N/A     54  37  54 CALM      29.82F
$$

MTZ017>020-022>027-061-062-010900-
NORTHEAST MONTANA

CITY           SKY/WX    TMP DP  RH WIND       PRES   REMARKS
GLASGOW        CLEAR     54  45  71 E7        29.82F
JORDAN           N/A     47  37  68 W3        29.84F
SIDNEY         CLEAR     48  43  81 CALM      29.84F
WOLF POINT     CLEAR     49  43  80 CALM      29.83F
MALTA            N/A     50  43  77 CALM      29.79F
PLENTYWOOD       N/A     55  39  54 E7        29.83F
POPLAR           N/A     52  39  62 N6        29.83F
SCOBEY           N/A     50  37  60 CALM      29.83F
$$

MTZ028>42-056>058-010900-
SOUTHCENTRAL AND SOUTHEAST MONTANA

CITY           SKY/WX    TMP DP  RH WIND       PRES   REMARKS
BAKER          CLEAR     58  51  78 SE7       29.89F
BILLINGS       CLEAR     63  36  36 CALM      29.87F
LIVINGSTON     CLEAR     66  31  27 CALM      29.92F
MILES CITY     CLEAR     58  42  55 NE6       29.85F
EKALAKA          N/A     63  52  67 SE12      29.89F
FORSYTH          N/A     61  41  48 E3        29.83F
LAUREL           N/A     57  34  42 CALM      29.88F
ROUNDUP          N/A     57  31  37 CALM      29.80F
$$

REGIONAL REPORTS...DAKOTAS

CITY           SKY/WX    TMP DP  RH WIND       PRES   REMARKS
WILLISTON      CLEAR     47  43  86 CALM      29.84F
MINOT          CLEAR     59  47  64 SW8       29.84F
DICKINSON      CLEAR     55  46  71 S9        29.86F
BEACH            N/A     48  46  93 S3        29.88F
CROSBY           N/A     54  41  62 SW12      29.82F
BISMARCK       CLEAR     56  51  84 E5        29.88F
GRAND FORKS    PTCLDY    56  53  90 SW5       29.85S
FARGO          MOCLDY    60  58  92 CALM      29.87F
BUFFALO SD       N/A     62  53  72 S3        29.85F
RAPID CITY     CLEAR     57  55  93 SE5       29.90F
$$

REGIONAL REPORTS...WYOMING/IDAHO/WASHINGTON

CITY           SKY/WX    TMP DP  RH WIND       PRES   REMARKS
GILLETTE       CLEAR     51  48  89 W6        29.93S
SHERIDAN       CLEAR     52  43  71 SW5       29.91F
BUFFALO WY     CLEAR     61  40  45 NW5       29.98F
CODY           CLEAR     57  28  33 N3        29.97S
YELLOWSTONE LA   N/A     35  27  72 NW3       30.21F
IDAHO FALLS    CLEAR     54  36  50 S7        30.01S
SALMON         CLEAR     48  39  71 CALM      29.94S
BOISE          CLEAR     64  37  36 SE6       29.90S
SPOKANE        MOCLDY    59  45  59 S9        29.87S
$$

REGIONAL REPORTS...ALBERTA

CITY           SKY/WX    TMP DP  RH WIND       PRES   REMARKS
EDMONTON       CLEAR     45  37  76 CALM      29.50F
CALGARY        PTCLDY    57  37  47 SW5       29.64S
LETHBRIDGE     CLEAR     48  39  71 S7        29.72F
MEDICINE HAT   CLEAR     54  41  62 SW8       29.70F
WATERTON GATE    N/A     59  32  36 SW25G49     N/A
CARDSTON         N/A     52  37  58 NE5         N/A
MILK RIVER       N/A     59  39  47 SW12        N/A
ONEFOUR          N/A     55  36  47 SE10G18     N/A
$$

REGIONAL REPORTS...SASKATCHEWAN

CITY           SKY/WX    TMP DP  RH WIND       PRES   REMARKS
SWIFT CURRENT  CLEAR     55  41  58 SW12      29.75S
REGINA         PTCLDY    54  46  76 SW10      29.75F
SASKATOON      MOCLDY    52  43  71 S5        29.67F
CYPRESS HILLS    N/A     57  34  41 SW16G22     N/A
VAL MARIE        N/A     45  37  76 SW2         N/A
ROCKGLEN         N/A     52  41  66 S5          N/A
ASSINIBOIA       N/A     52  43  71 SE3         N/A
$$



USA.gov is the U.S. government's official web portal to all federal, state and local government web resources and services.